Wind_Speed
40 39 38 38 39 39 40 41 42 43 44 45 47 48 49 49 49 49 49 49 49 50 50 51 51 50 48 47 45 43 42 44 42 40 40 39 38 37 36 34 32 29 26
40 39 39 39 40 41 42 43 44 45 46 47 48 49 50 51 51 52 52 52 52 52 52 53 54 54 53 51 49 47 46 44 43 42 41 39 39 39 38 37 34 31 29
41 40 40 41 42 43 43 45 45 46 47 48 49 49 50 51 52 53 54 54 54 54 54 55 57 57 57 56 54 51 49 47 45 45 43 41 41 40 39 39 37 34 31
42 41 42 42 43 43 44 45 46 47 49 49 48 48 49 49 50 51 53 54 54 54 54 55 58 59 60 59 58 56 53 51 48 47 46 44 42 42 40 40 39 37 34
43 42 43 43 43 44 45 46 47 47 47 47 47 47 47 47 47 48 49 50 51 53 53 54 56 60 61 61 60 59 58 55 52 49 49 47 44 43 41 41 40 38 36
43 43 43 43 44 45 46 46 46 46 46 46 46 45 44 44 45 46 46 47 48 50 52 53 54 57 60 61 62 61 61 59 57 53 50 49 46 44 43 42 41 40 38
43 43 44 44 44 45 45 46 46 45 45 44 43 42 41 41 41 42 43 44 45 46 49 51 54 54 57 59 61 61 61 61 59 56 53 50 48 46 45 43 42 41 40
43 43 44 44 44 44 45 46 45 44 43 41 40 39 38 37 38 38 39 40 41 42 45 49 51 51 53 56 58 59 60 60 60 59 56 52 49 47 46 45 43 42 41
44 44 44 44 44 44 45 45 44 42 40 38 36 35 34 33 33 33 34 35 37 39 42 45 47 47 49 51 53 55 56 58 59 59 59 58 54 48 46 45 44 42 40
44 44 44 44 44 44 44 44 42 40 37 35 33 32 31 30 29 28 28 30 32 35 39 43 45 45 45 47 49 51 53 54 55 56 57 58 55 51 47 44 43 43 41
44 44 44 44 44 43 43 43 40 38 36 33 32 30 29 28 26 25 24 25 28 31 35 39 42 44 44 43 44 47 49 51 52 53 54 55 54 52 48 45 43 41 41
44 44 44 43 43 43 43 41 38 37 34 32 30 28 27 24 22 19 18 21 24 27 31 34 39 41 42 42 42 43 45 47 48 50 52 53 52 51 48 46 43 40 40
43 44 43 43 43 43 41 39 37 35 33 31 28 26 24 21 18 15 14 16 20 24 27 31 35 37 38 39 40 41 42 43 44 45 47 49 51 51 48 46 43 42 40
43 43 43 42 42 42 40 39 37 34 32 28 25 23 20 17 13 10 9 12 16 20 25 27 30 33 34 36 38 38 39 39 40 41 42 45 47 49 48 46 43 42 40
42 42 42 42 42 41 39 38 37 33 30 26 23 21 16 13 11 7 5 9 14 19 22 25 28 30 32 33 34 35 36 37 38 38 40 42 44 46 47 45 44 43 42
41 41 41 41 40 40 38 36 35 32 28 24 22 19 15 11 8 4 4 9 13 17 21 23 24 27 28 29 31 32 33 34 36 37 39 40 40 42 44 44 43 44 42
41 40 40 40 39 38 37 35 33 30 27 24 20 17 13 9 7 3 3 7 12 16 19 21 23 25 26 27 29 30 30 32 33 36 38 39 40 41 42 42 41 41 41
39 39 39 38 38 37 36 34 31 29 26 23 20 16 12 8 5 3 3 7 11 15 18 20 22 23 24 26 27 28 29 30 32 34 36 38 39 41 41 41 42 41 40
38 37 37 37 37 36 35 33 31 28 26 23 19 15 12 8 5 3 4 7 11 14 17 18 19 21 22 23 24 26 28 29 31 33 35 36 37 39 40 40 41 41 40
36 35 35 35 36 36 34 32 30 27 25 22 18 14 11 9 6 4 5 7 10 12 15 17 18 19 20 20 22 24 26 28 29 32 34 36 36 38 39 40 41 41 40
35 33 33 33 34 34 33 31 29 27 24 22 18 14 10 8 6 4 5 7 9 10 13 15 17 18 19 19 20 23 25 26 28 30 33 35 35 36 38 40 41 41 40
33 32 31 31 32 32 32 30 28 26 24 21 18 14 11 7 5 3 3 6 8 9 12 14 16 17 18 18 19 21 22 24 27 30 32 34 36 37 38 39 39 39 39
32 30 29 28 29 30 30 29 28 26 24 21 19 16 12 9 5 2 2 4 7 9 11 13 15 15 16 16 17 18 20 21 24 28 32 34 35 37 38 38 37 38 37
30 28 27 26 26 27 28 27 26 25 23 21 19 16 13 11 8 4 1 3 6 9 11 13 14 14 15 15 16 18 19 20 23 28 31 32 34 36 37 38 38 37 36
28 26 25 24 24 24 25 24 24 24 22 20 19 17 15 12 10 7 4 4 6 8 10 11 12 14 14 15 15 16 18 21 24 27 30 31 33 35 36 36 37 36 35
26 24 23 21 21 21 22 22 21 21 21 20 19 18 16 15 12 10 8 7 8 8 9 10 11 12 14 15 16 17 19 21 23 26 29 30 31 32 32 33 33 32 32
Wind_Direction
312 308 304 302 300 298 296 295 293 291 289 287 285 283 282 279 276 272 268 262 257 254 251 247 243 241 240 237 234 232 230 227 224 225 224 222 221 219 218 219 221 223 227
314 310 307 304 302 300 299 297 295 293 291 289 286 283 280 277 274 270 267 262 258 253 250 247 243 240 238 237 233 231 230 227 225 224 224 222 222 221 219 219 221 223 226
315 312 309 307 305 303 301 300 297 296 294 292 289 286 282 277 273 269 265 261 257 253 249 246 242 240 237 236 233 231 229 227 225 224 223 221 221 221 220 220 221 222 225
317 314 311 310 308 306 305 303 301 299 297 295 291 288 284 279 274 269 264 260 255 251 247 243 240 239 237 235 234 231 229 227 226 224 224 222 221 221 221 221 221 222 225
318 315 314 312 311 309 308 307 305 303 300 297 294 290 286 280 275 269 264 259 253 248 244 241 239 237 235 235 233 231 230 228 226 225 225 223 222 222 222 223 223 223 224
320 318 317 315 313 312 311 310 308 306 303 300 297 293 288 282 276 270 264 258 252 247 242 238 237 235 234 233 232 230 230 229 227 226 224 223 223 223 223 224 225 224 224
323 321 320 318 317 316 315 314 312 310 307 304 301 296 291 284 278 271 264 256 250 245 240 237 235 234 233 232 231 230 229 228 228 227 226 225 225 224 224 224 225 225 223
326 324 323 322 321 320 319 318 316 313 311 307 303 299 294 289 281 272 263 255 248 242 238 234 233 232 232 231 230 229 228 227 227 227 228 226 225 226 226 225 226 226 225
329 327 326 325 324 324 323 322 320 318 314 311 307 303 299 293 285 276 265 254 246 240 235 232 230 229 230 229 229 229 228 227 226 226 227 227 226 226 226 227 227 227 225
331 330 330 329 328 327 326 325 323 321 317 314 311 307 303 297 289 279 266 252 242 236 232 229 227 226 226 226 226 227 227 226 225 225 226 227 225 224 224 226 226 225 225
333 333 333 332 331 330 330 329 327 325 321 317 315 310 306 300 293 281 265 249 237 232 228 225 223 223 223 223 224 224 224 225 224 224 224 224 224 223 224 226 225 224 224
336 336 336 335 335 334 333 333 331 328 325 321 319 315 312 307 298 283 264 246 233 227 222 219 218 219 220 219 219 220 221 222 223 223 223 223 223 223 224 223 223 222 223
338 338 339 338 338 338 337 337 335 332 329 326 323 321 318 313 304 287 262 241 227 220 215 213 212 213 214 214 215 216 218 219 220 221 222 222 222 222 223 224 224 222 222
340 341 341 341 342 341 341 340 338 336 334 332 330 328 325 321 314 294 258 231 216 209 206 205 204 205 207 209 211 212 214 215 215 216 217 217 218 220 222 222 222 222 221
342 343 343 344 344 345 344 343 343 341 340 338 337 336 333 329 322 307 250 213 201 198 198 197 196 199 202 204 207 209 211 211 211 212 212 214 216 218 218 221 222 220 221
343 344 345 347 347 348 348 347 347 347 346 345 343 344 343 339 334 310 226 198 196 193 191 192 193 194 195 198 201 204 205 206 207 208 210 210 212 215 217 218 219 219 219
344 346 347 349 350 351 352 352 352 353 351 350 349 349 351 354 358 6 173 176 179 184 187 188 188 188 191 194 196 198 199 201 202 204 206 207 208 210 212 214 213 214 215
345 347 349 351 353 354 355 356 357 358 358 357 357 359 2 8 20 55 136 164 174 177 178 179 181 185 189 192 195 196 196 197 198 200 202 205 206 207 209 211 212 212 213
345 347 349 353 354 356 357 358 360 0 2 3 4 6 11 19 36 86 129 150 166 173 175 178 180 184 187 189 192 195 196 195 195 197 198 202 205 205 206 207 206 207 209
345 346 350 352 354 356 358 359 2 3 4 6 9 12 18 28 45 89 127 143 154 165 174 178 181 183 186 189 193 195 195 194 195 196 197 200 202 202 203 203 203 204 206
345 346 349 353 354 357 359 1 4 5 5 6 10 14 19 29 47 81 129 149 158 168 175 180 183 186 189 192 194 195 196 198 197 196 196 197 197 197 198 200 200 203 204
345 346 349 352 355 358 1 3 5 6 8 10 12 15 19 24 41 74 131 162 171 176 182 184 186 188 190 192 193 193 195 195 196 195 195 192 190 191 194 196 198 199 200
344 346 348 351 355 359 2 5 7 8 10 13 17 20 22 23 24 37 131 170 183 186 187 186 187 188 190 192 195 196 194 194 196 196 194 192 190 189 190 191 193 194 196
343 344 346 350 355 359 2 6 9 10 13 16 20 22 23 24 26 34 101 177 184 186 189 190 190 189 187 189 193 194 194 194 192 190 190 189 188 188 189 190 191 192 194
341 342 344 348 353 358 3 6 11 14 16 19 23 26 27 29 33 41 71 136 157 166 172 179 186 187 189 190 190 190 188 185 185 184 185 185 184 184 185 187 188 190 194
339 339 342 345 350 355 360 4 10 16 21 24 27 30 33 36 40 49 72 104 126 145 158 166 171 176 181 182 179 179 179 178 178 177 178 177 177 179 182 184 186 190 196
Height
5738 5732 5727 5723 5718 5714 5710 5706 5703 5699 5696 5693 5690 5687 5685 5684 5683 5684 5686 5689 5693 5696 5701 5706 5712 5718 5724 5730 5736 5742 5748 5754 5760 5767 5773 5778 5784 5790 5796 5801 5807 5811 5815
5728 5722 5717 5712 5707 5703 5698 5694 5690 5686 5682 5678 5675 5672 5670 5668 5667 5667 5668 5671 5675 5679 5684 5690 5696 5703 5710 5717 5724 5731 5737 5743 5750 5757 5763 5769 5775 5782 5788 5794 5799 5804 5808
5719 5713 5707 5701 5696 5691 5686 5681 5676 5671 5666 5662 5658 5654 5652 5650 5649 5648 5649 5652 5656 5661 5666 5673 5679 5686 5694 5702 5710 5718 5725 5732 5740 5747 5753 5759 5766 5772 5779 5785 5791 5796 5801
5710 5703 5697 5691 5685 5679 5673 5667 5661 5656 5650 5645 5640 5636 5633 5631 5629 5629 5630 5632 5636 5641 5647 5654 5661 5669 5677 5686 5695 5704 5712 5720 5728 5736 5742 5749 5756 5763 5770 5776 5783 5789 5794
5700 5693 5687 5680 5673 5667 5660 5654 5647 5640 5634 5628 5623 5619 5615 5612 5611 5610 5611 5613 5617 5622 5629 5636 5643 5651 5660 5669 5679 5689 5698 5707 5716 5724 5731 5739 5746 5754 5761 5767 5774 5780 5786
5691 5684 5676 5669 5662 5655 5648 5640 5633 5625 5618 5612 5606 5601 5597 5594 5592 5592 5592 5594 5599 5604 5611 5618 5625 5634 5643 5653 5663 5673 5684 5693 5703 5712 5720 5728 5737 5744 5751 5758 5765 5772 5778
5682 5675 5667 5659 5651 5643 5635 5627 5619 5611 5604 5597 5591 5585 5581 5577 5575 5574 5574 5577 5582 5588 5594 5602 5609 5618 5627 5637 5647 5657 5668 5679 5689 5700 5709 5718 5726 5734 5742 5749 5755 5762 5769
5674 5666 5657 5649 5641 5632 5623 5615 5606 5598 5590 5583 5577 5571 5566 5562 5559 5558 5558 5561 5566 5573 5579 5586 5594 5603 5612 5622 5632 5642 5653 5665 5677 5687 5698 5707 5715 5723 5731 5738 5745 5753 5760
5665 5657 5648 5639 5631 5622 5613 5603 5594 5586 5578 5571 5564 5558 5553 5549 5545 5544 5544 5547 5552 5559 5565 5572 5580 5590 5599 5609 5619 5630 5641 5651 5661 5673 5684 5695 5704 5713 5721 5729 5737 5744 5751
5658 5649 5640 5630 5621 5612 5603 5593 5584 5576 5568 5561 5554 5548 5542 5538 5534 5532 5532 5535 5540 5546 5553 5560 5569 5577 5586 5595 5606 5616 5627 5637 5649 5660 5672 5683 5693 5702 5711 5720 5728 5735 5741
5651 5642 5632 5623 5613 5604 5595 5585 5575 5567 5559 5552 5545 5539 5533 5528 5525 5523 5522 5525 5529 5535 5541 5549 5557 5566 5575 5585 5595 5605 5615 5626 5637 5648 5659 5671 5681 5692 5702 5711 5719 5726 5734
5645 5635 5626 5616 5606 5597 5587 5577 5568 5559 5551 5544 5538 5532 5526 5521 5517 5515 5515 5517 5521 5526 5532 5540 5548 5557 5566 5576 5586 5595 5605 5616 5627 5638 5649 5660 5671 5682 5692 5700 5709 5716 5725
5639 5630 5620 5610 5600 5591 5581 5571 5562 5553 5545 5538 5532 5526 5520 5516 5512 5510 5510 5511 5515 5520 5526 5533 5541 5549 5558 5568 5578 5587 5597 5608 5618 5629 5640 5651 5661 5672 5681 5690 5699 5708 5715
5634 5625 5615 5606 5596 5586 5576 5566 5557 5549 5541 5534 5527 5521 5516 5512 5509 5507 5507 5508 5511 5516 5522 5529 5536 5544 5552 5561 5571 5580 5590 5600 5610 5620 5631 5641 5651 5661 5672 5681 5690 5699 5707
5630 5621 5612 5602 5592 5582 5572 5563 5553 5545 5537 5530 5525 5519 5514 5511 5508 5506 5506 5507 5510 5515 5520 5526 5533 5541 5549 5557 5566 5575 5584 5593 5603 5612 5622 5632 5642 5652 5662 5672 5681 5690 5700
5627 5618 5608 5599 5589 5579 5570 5560 5551 5543 5535 5529 5523 5518 5514 5511 5508 5507 5507 5508 5511 5515 5520 5526 5532 5539 5546 5554 5562 5570 5578 5587 5596 5605 5614 5624 5634 5644 5654 5663 5672 5682 5691
5624 5615 5606 5596 5587 5577 5568 5559 5551 5543 5535 5529 5523 5518 5515 5512 5510 5508 5508 5510 5512 5516 5521 5526 5532 5538 5545 5551 5559 5566 5574 5582 5590 5599 5608 5617 5626 5636 5646 5656 5664 5673 5683
5621 5613 5604 5595 5586 5577 5568 5559 5551 5543 5536 5530 5524 5520 5516 5514 5512 5511 5511 5513 5515 5518 5522 5527 5532 5538 5544 5550 5556 5563 5570 5577 5585 5593 5602 5611 5619 5629 5638 5648 5657 5666 5676
5619 5611 5603 5594 5585 5577 5568 5560 5552 5544 5537 5531 5527 5522 5519 5517 5515 5515 5515 5516 5518 5521 5525 5529 5533 5538 5544 5549 5555 5561 5567 5574 5581 5588 5596 5605 5613 5622 5632 5641 5650 5660 5669
5617 5609 5602 5594 5586 5577 5569 5561 5553 5546 5540 5534 5529 5526 5523 5521 5519 5518 5519 5520 5522 5524 5527 5531 5535 5540 5544 5549 5554 5559 5565 5571 5577 5584 5592 5600 5608 5617 5626 5635 5644 5653 5663
5615 5608 5601 5593 5586 5578 5570 5562 5555 5548 5542 5537 5532 5529 5526 5524 5523 5522 5522 5523 5525 5527 5530 5533 5537 5540 5544 5549 5553 5558 5563 5569 5574 5580 5587 5595 5602 5611 5620 5630 5639 5648 5657
5613 5607 5600 5594 5587 5579 5572 5564 5557 5551 5545 5540 5535 5532 5529 5527 5526 5525 5525 5526 5527 5529 5531 5534 5537 5541 5545 5549 5553 5557 5562 5567 5572 5578 5584 5591 5599 5607 5616 5625 5634 5643 5652
5612 5606 5600 5594 5587 5581 5574 5567 5560 5554 5548 5543 5539 5535 5532 5530 5528 5527 5527 5528 5529 5531 5533 5535 5538 5542 5545 5549 5553 5557 5561 5565 5570 5576 5582 5589 5596 5604 5613 5622 5630 5639 5648
5611 5605 5599 5594 5588 5582 5576 5569 5563 5557 5552 5547 5543 5539 5535 5533 5531 5529 5528 5529 5530 5531 5533 5536 5539 5542 5546 5549 5552 5556 5560 5564 5569 5574 5580 5587 5594 5602 5611 5619 5627 5636 5644
5609 5604 5599 5594 5589 5583 5578 5572 5567 5561 5555 5550 5546 5543 5539 5536 5533 5531 5530 5530 5531 5533 5535 5537 5540 5543 5546 5549 5552 5556 5560 5564 5569 5574 5581 5587 5594 5602 5609 5617 5625 5633 5641
5608 5603 5598 5594 5589 5585 5580 5575 5570 5565 5560 5555 5551 5547 5543 5540 5537 5535 5534 5533 5534 5535 5537 5538 5541 5543 5546 5549 5553 5557 5561 5565 5570 5576 5581 5588 5595 5602 5610 5617 5624 5631 5639